Regional Weather Roundup
Issued by NWS Sioux Falls, SD

Home | Current Version | Previous Version | Text Only | Print | Product List | Glossary On
Versions: 1 2 3 4 5 6 7 8 9 10 11 12 13 14 15 16 17 18 19 20 21 22 23 24 25 26 27 28 29 30 31 32 33 34 35 36 37 38 39 40 41 42 43 44 45 46 47 48 49 50
000
ASUS43 KFSD 290610
RWRFSD

WEATHER ROUNDUP FOR SE SOUTH DAKOTA/SW MINNESOTA/NW IOWA
NATIONAL WEATHER SERVICE SIOUX FALLS SD
100 AM CDT SAT AUG 29 2015

NOTE: "FAIR" INDICATES FEW OR NO CLOUDS BELOW 12,000 FEET WITH NO
SIGNIFICANT WEATHER AND OR OBSTRUCTIONS TO VISIBILITY.


SDZ038>040-050-052>070-290700-
SOUTHEAST SOUTH DAKOTA

CITY           SKY/WX    TMP DP  RH WIND       PRES   REMARKS
BROOKINGS      FAIR      57  54  88 CALM      30.05S
CHAMBERLAIN    CLEAR     62  62  99 S6        30.02F
6HR MIN TEMP:  62; 6HR MAX TEMP:  74;

HURON          CLEAR     64  62  93 S9        30.00F
6HR MIN TEMP:  64; 6HR MAX TEMP:  76;

MADISON        FAIR      55  55 100 CALM      30.04S
MITCHELL       CLEAR     62  61  96 S8        30.03S
6HR MIN TEMP:  62; 6HR MAX TEMP:  75;

SIOUX FALLS    FAIR      56  55  97 CALM      30.04R
6HR MIN TEMP:  56; 6HR MAX TEMP:  69;

WINNER         FAIR      65  61  87 S8        30.04S
YANKTON        FAIR      57  55  94 CALM      30.03S
$$

MNZ071-072-080-081-089-090-097-098-290700-
SOUTHWEST MINNESOTA

CITY           SKY/WX    TMP DP  RH WIND       PRES   REMARKS
FAIRMONT       CLOUDY    59  52  77 CALM      30.00S
JACKSON        CLOUDY    59  55  88 NE5       30.03S
LUVERNE        MOCLDY    57  55  94 CALM      30.04S
MARSHALL       FAIR      55  50  82 S3        30.04S
6HR MIN TEMP:  55; 6HR MAX TEMP:  68;

MONTEVIDEO     FAIR      57  55  94 SW5       30.04S
PIPESTONE      FAIR      55  54  94 CALM      30.04S
REDWOOD FALLS  FAIR      56  55  97 CALM      30.03S
TRACY          FAIR      57  55  94 CALM      30.04S
WINDOM         MOCLDY    55  54  94 CALM      30.03S
WORTHINGTON    FAIR      57  54  88 N5        30.03S
$$

IAZ001>003-012>014-020>022-031-032-NEZ013-014-SDZ071-290700-
NORTHWEST IOWA

CITY           SKY/WX    TMP DP  RH WIND       PRES   REMARKS
CHEROKEE       CLOUDY    60  59  99 N7        30.00R
DENISON        CLOUDY    61  59  94 N9G15     29.96R
ESTHERVILLE    CLOUDY    58  56  93 NE9       30.00S
LE MARS        CLOUDY    61  59  94 N7        30.02S
ORANGE CITY    CLOUDY    61  57  88 NE8       30.02S
SHELDON        CLOUDY    59  57  94 NE8       30.01S
SIOUX CITY     CLOUDY    62  57  83 N12       30.01R
6HR MIN TEMP:  62; 6HR MAX TEMP:  65;

SPENCER        FAIR      58  55  90 N7        30.01R
6HR MIN TEMP:  59; 6HR MAX TEMP:  61;

STORM LAKE     CLOUDY    59  59 100 N12       30.00R FOG
$$

ABBREVIATIONS USED IN REMARKS
   TC - TEMPERATURE IN CELSIUS
  WCI - WIND CHILL INDEX
   HX - HEAT INDEX
  VSB - VISIBILITY



USA.gov is the U.S. government's official web portal to all federal, state and local government web resources and services.